Back to catalog

STARLINK-4629

AliveCommunicationsVLEO
NORAD 53968·PAYLOAD·🇺🇸 United States

Launched Oct 5, 2022 from Vandenberg Space Force Base

Loading…

Next Passes (next 24 hours)

TLE

FreshSource: CelesTrak SupGP

Epoch: Sep 14, 2026, 13:17 UTC

1 53968C 22125E   26257.55395833  .00014900  00000+0  44018-3 0  2576
2 53968  53.1580  89.3098 0001142  95.4398 302.2165 15.34386807    13

Track STARLINK-4629 in real time with AllMySat

Download on the App Store